Track HAIYANG 2A now! 10-day predictions HAIYANG 2A is classified as:
1 37781U 11043A 25182.92790747 -.00000003 00000-0 40710-4 0 9998 2 37781 99.3322 186.3710 0001551 116.5342 243.5969 13.78818918698416